Location: *
(50.4519°N, 2.9128°E)
Time: 07:13:22
(UTC+00:00)

Daily predictions for brighter satellites

Satellite Brightness Start Highest point End
(mag) Time Altitude Azimuth Time Altitude Azimuth Time Altitude Azimuth
Nadezhda 4 Rocket 4.2 20:21:20 10° N 20:27:38 64° ENE 20:33:48 10° SSE
Cosmos 2251 Rocket 3.9 20:27:18 10° SSW 20:32:31 69° WNW 20:37:46 10° NNE
Cosmos 2360 Rocket 2.5 20:29:44 10° S 20:35:04 45° ESE 20:40:25 10° NE
USA 215 3.3 20:28:37 10° ENE 20:35:11 74° SE 20:41:45 10° SW
SL-4 R/B 3.3 20:31:42 10° SSW 20:35:47 28° SE 20:39:51 10° E
BREEZE-M DEB (TANK) 2.5 20:34:46 10° SW 20:37:32 34° SSE 20:39:32 10° E
SPOT 5 3.6 20:34:10 10° SE 20:38:49 41° ENE 20:43:17 10° N
Cosmos 1607 4.2 20:32:53 10° NW 20:39:01 63° NE 20:45:08 10° SE
DMSP B5D2-2 4.1 20:34:09 10° NNE 20:39:24 75° ESE 20:44:36 10° S
Cosmos 1980 Rocket 4.2 20:35:05 10° WSW 20:40:11 34° NW 20:45:18 10° NNE
Cosmos 2034 Rocket 4.1 20:35:06 10° S 20:41:18 69° E 20:47:36 10° NNE
Cosmos 1743 Rocket 3.8 20:40:20 10° S 20:44:34 52° E 20:48:48 10° NNE
Cosmos 1356 Rocket 3.7 20:42:03 10° N 20:46:19 61° ENE 20:50:35 10° SSE
Cosmos 1606 3.5 20:43:20 10° N 20:46:53 37° ENE 20:50:16 11° SE
CZ-2C R/B 2.8 20:41:55 10° NNE 20:47:01 49° E 20:52:00 10° S
Cosmos 1092 Rocket 4.2 20:41:47 10° N 20:47:59 60° ENE 20:54:05 10° SSE
Cosmos 1238 Rocket 4.3 20:42:18 10° SSW 20:48:59 79° W 20:55:26 10° N
Landsat 7 4.0 20:45:32 10° SSE 20:50:14 63° ENE 20:54:57 10° N
Cosmos 1515 Rocket 3.6 20:46:06 10° NNW 20:50:29 81° W 20:54:49 10° S
Cosmos 292 Rocket 3.9 20:48:58 10° NNW 20:53:49 69° ENE 20:58:23 11° SSE
Spot 2 Rocket 4.3 20:53:24 10° S 20:58:21 50° W 21:03:22 10° NNW
Cosmos 1408 Rocket 4.2 20:57:29 10° SSW 21:01:44 57° WNW 21:06:00 10° N
Cosmos 1825 2.3 20:59:45 10° S 21:03:27 57° E 21:07:10 10° NNE
ATLAS CENTAUR R/B 3.0 20:59:42 10° NNW 21:04:06 33° NNE 21:08:14 10° E
Cosmos 2219 Rocket 3.2 20:59:29 10° SSE 21:04:11 28° ESE 21:08:54 10° NE
SPOT 1/Viking Rocket 3.6 20:59:02 10° SSE 21:04:13 82° ENE 21:09:28 10° NNW
ATLAS 5 CENTAUR R/B 4.2 21:00:18 10° NW 21:04:24 23° NNE 21:08:57 10° ENE
ISS -3.8 21:01:04 10° WSW 21:04:24 64° SSE 21:07:42 10° ENE
Lacrosse 5 3.1 20:59:41 10° WNW 21:04:31 42° N 21:09:21 10° E
Cosmos 2322 Rocket 2.8 21:01:13 10° SW 21:06:52 62° NW 21:12:33 10° NNE
ASTEX 1 4.5 21:03:53 10° NNE 21:08:15 29° E 21:11:49 14° SE
Cosmos 1805 Rocket 4.3 21:05:43 12° SSE 21:09:17 36° E 21:13:17 10° NNE
USA 267 3.6 21:05:23 12° SE 21:11:25 54° SW 21:17:50 10° WNW
Cosmos 2278 Rocket 3.1 21:07:28 10° NNW 21:12:47 39° NE 21:17:50 11° ESE
USA 245 3.3 21:11:11 11° SSW 21:13:10 34° W 21:15:22 10° NNW
Cosmos 1634 Rocket 4.2 21:08:02 10° SSE 21:14:05 55° E 21:20:09 10° NNE
SL-16 R/B 3.2 21:08:52 10° SW 21:14:22 50° NW 21:19:55 10° NNE
Cosmos 1818 3.6 21:12:06 10° NW 21:17:38 89° SW 21:22:08 15° SE
Cosmos 2026 Rocket 4.0 21:12:40 10° N 21:18:46 69° ENE 21:24:09 14° SSE
Cosmos 2333 Rocket 2.9 21:13:53 10° S 21:18:57 34° ESE 21:24:03 10° NE
Meteor 2-11 Rocket 4.4 21:12:55 10° S 21:18:58 76° E 21:25:05 10° NNE
Terra 2.0 21:15:29 14° SSE 21:19:26 62° ENE 21:24:10 10° N
Cosmos 1933 3.7 21:15:36 10° NNW 21:19:38 64° W 21:23:31 11° S
EO 1 Del DPAF 3.3 21:17:04 10° NNE 21:20:53 79° WNW 21:24:40 10° SSW
NOSS 3-1 (C) 3.5 21:15:47 10° SSW 21:21:11 52° ESE 21:27:27 10° NE
Cosmos 1844 Rocket 3.0 21:15:47 10° NNW 21:21:25 66° WSW 21:26:21 14° SSE
Cosmos 44 Rocket 4.0 21:16:24 10° SW 21:21:28 62° NW 21:26:26 10° NE
MOS 1 Rocket 4.0 21:17:36 10° NNE 21:21:44 34° E 21:24:55 16° SSE
Meteor 2-3 Rocket 3.8 21:18:03 10° S 21:23:47 67° E 21:29:34 10° NNE
CARTOSAT-1 3.6 21:22:47 14° SSE 21:26:26 87° W 21:30:46 10° NNW
Cosmos 2228 Rocket 3.9 21:22:08 10° NNW 21:26:34 51° W 21:30:59 10° S
Meteor 1-26 Rocket 4.3 21:21:51 10° NNW 21:27:32 83° W 21:32:28 13° S
Cosmos 2322 3.7 21:22:59 10° SSW 21:28:36 71° ESE 21:34:16 10° NNE
Cosmos 1666 Rocket 4.4 21:27:20 17° SE 21:30:07 34° E 21:34:10 10° NNE
Cosmos 1633 Rocket 4.1 21:28:13 17° SE 21:30:35 28° E 21:34:19 10° NNE
Cosmos 2084 Rocket 3.8 21:27:48 10° NW 21:32:07 56° SW 21:35:02 19° SSE
Cosmos 1655 Rocket 4.4 21:26:11 10° N 21:32:16 49° ENE 21:36:53 17° SE
Resurs 01 Rocket 4.3 21:34:54 10° WSW 21:36:54 13° W 21:38:55 10° WNW
Cosmos 676 Rocket 4.1 21:32:18 10° S 21:37:26 60° ESE 21:42:37 10° NNE
Gbstr 26 Del rocket 2.8 21:34:34 10° W 21:38:27 73° N 21:42:11 10° E
NOSS 8 (A) 4.3 21:39:46 10° SSW 21:42:53 50° SE 21:45:56 10° NE
Landsat 4 3.7 21:40:24 10° NNE 21:44:06 62° ESE 21:46:35 19° S
Cosmos 1867 4.4 21:41:23 17° SSE 21:44:36 31° ESE 21:49:22 10° NE
Sich 1 3.1 21:42:57 19° S 21:45:54 60° E 21:50:08 10° NNE
Cosmos 1954 Rocket 4.0 21:45:19 10° SSW 21:50:31 71° ESE 21:55:48 10° NNE
Cosmos 1140 Rocket 3.5 21:47:18 10° SSW 21:52:29 90° WNW 21:57:44 10° NNE
IRAS Rocket 4.3 21:54:54 20° SSE 21:58:51 85° ENE 22:04:31 10° NNW
Lacrosse 5 rocket 2.0 21:54:33 10° NW 21:59:10 60° NNE 22:03:08 13° ESE
USA 229 DEB 3.7 21:53:23 10° SW 22:00:03 85° NW 22:07:04 10° NE
Cosmos 407 Rocket 4.2 21:54:51 10° SW 22:00:05 56° WNW 22:05:23 10° NNE
USA 229 3.7 21:53:30 10° SW 22:00:09 85° NW 22:07:10 10° NE
Cosmos 614 Rocket 4.5 21:56:03 10° SW 22:01:02 59° WNW 22:06:07 10° NNE
ERS-1 Rocket 4.3 21:57:40 10° SSW 22:02:11 33° W 22:06:44 10° NNW
Cosmos 1812 4.0 21:59:32 10° N 22:02:56 28° ENE 22:04:38 20° ESE
NOSS 3-1 (A) 3.3 21:57:39 10° SSW 22:03:12 64° SE 22:09:41 10° NE
Cosmos 1633 3.5 22:03:36 26° SE 22:04:37 32° E 22:07:50 10° NNE
SL-16 R/B 3.9 22:06:05 14° ESE 22:07:27 15° E 22:10:27 10° ENE
Cosmos 2266 Rocket 4.3 22:03:19 10° N 22:09:39 59° ENE 22:13:39 23° SSE
Thor Agena Rocket 4.3 22:05:48 10° N 22:10:41 50° WNW 22:15:33 10° SW
COSMOS 2428 2.7 22:05:30 10° SSW 22:11:14 84° ESE 22:17:00 10° NNE
SeaSat 1 4.1 22:08:17 10° ENE 22:11:14 16° ESE 22:11:57 15° ESE
Cosmos 1782 3.4 22:08:02 10° NNW 22:11:58 52° W 22:14:21 22° SSW
NOSS 2-3 (E) 4.1 22:11:55 23° S 22:14:20 44° ESE 22:19:21 10° NE
SL-4 R/B 2.3 22:10:17 10° WSW 22:15:09 76° SSE 22:19:52 10° ENE
Cosmos 1980 4.2 22:12:40 23° SSE 22:15:42 43° ESE 22:21:03 10° NE
Helios 1A 3.1 22:13:39 28° SE 22:15:43 64° ENE 22:19:51 10° N
Meteor 1-10 Rocket 4.2 22:10:26 10° NNW 22:16:06 87° W 22:19:45 24° S
SPOT 5 4.3 22:12:52 11° SSW 22:16:59 31° W 22:21:15 10° NNW
NOSS 2-3 (D) 4.1 22:15:01 25° S 22:17:15 44° ESE 22:22:13 10° NE
USA 215 3.9 22:11:44 10° ENE 22:18:08 60° NNW 22:24:34 10° W
Cosmos 841 Rocket 4.2 22:13:24 10° NNW 22:18:20 43° ENE 22:21:35 20° ESE
Cosmos 2360 Rocket 3.6 22:13:56 10° WSW 22:19:11 39° NW 22:24:28 10° NNE
Cosmos 1400 Rocket 3.4 22:17:34 10° N 22:21:36 48° ENE 22:23:22 29° SE
Cosmos 2237 Rocket 2.6 22:19:40 25° SSE 22:22:32 45° ESE 22:27:52 10° NE
Cosmos 1707 Rocket 4.4 22:19:29 10° NNW 22:23:44 45° W 22:26:32 20° SSW
Cosmos 2279 Rocket 4.1 22:18:49 16° SSW 22:23:57 79° W 22:30:12 10° N
Cosmos 1763 Rocket 3.6 22:18:49 10° NNW 22:24:01 73° ENE 22:26:57 27° SE
Cosmos 1862 3.3 22:22:57 32° S 22:24:39 67° E 22:28:38 10° NNE
Meteor 2-6 Rocket 4.3 22:20:18 10° NNW 22:25:43 68° W 22:29:11 23° S
CZ-2C R/B 4.4 22:22:37 10° N 22:27:05 29° WNW 22:31:29 10° WSW
Cosmos 468 Rocket 4.0 22:24:41 10° NNW 22:29:59 80° WSW 22:32:50 28° SSE
ATLAS 3B R/B 4.4 22:26:24 10° NW 22:32:11 30° NNE 22:37:58 10° ENE
ISS -3.5 22:37:47 10° W 22:41:07 69° N 22:44:26 10° E
NOSS 0 Rocket 3.9 22:37:27 18° SSW 22:42:05 74° ESE 22:48:14 10° NE
Mayak -1.3 22:39:00 10° NNE 22:43:17 81° ESE 22:45:09 33° S
ATLAS CENTAUR R/B 1.8 22:38:43 10° NW 22:43:24 58° SW 22:45:05 35° S
ASTEX 1 4.4 22:42:41 10° N 22:47:24 42° WNW 22:51:19 14° SW
Cosmos 2219 Rocket 2.7 22:42:11 10° SW 22:47:47 60° NW 22:53:25 10° NNE
Lacrosse 5 1.9 22:42:53 10° WNW 22:47:59 84° NNE 22:51:22 21° ESE
Helios 1B rocket 3.0 22:44:29 10° NNE 22:48:27 42° E 22:49:33 34° SE
Cosmos 1943 Rocket 3.9 22:44:50 10° NNW 22:49:27 26° NE 22:54:03 10° E
ATLAS 5 CENTAUR R/B 3.1 22:44:57 10° NW 22:50:16 48° NE 22:56:21 10° ESE
Lacrosse 4 Rocket 2.7 22:50:03 26° ESE 22:50:28 27° ESE 22:54:12 10° NE
Cosmos 2297 3.9 22:47:30 10° NNW 22:53:10 68° ENE 22:56:27 26° SE
Cosmos 2278 Rocket 2.8 22:51:35 10° NW 22:56:59 45° WSW 22:59:40 27° SSW
Terra 3.8 22:54:22 11° SW 22:57:37 19° W 23:01:03 10° NW
Cosmos 2208 Rocket 4.2 22:52:14 10° NNW 22:57:41 70° WSW 23:00:13 32° S
Cosmos 1703 Rocket 3.6 22:53:21 10° N 22:57:49 71° ENE 22:59:32 37° SSE
NOSS 2-3 (C) 3.8 22:56:02 17° SW 22:59:35 89° SE 23:05:07 10° NE
COSMOS 2455 3.1 22:58:56 30° S 23:01:37 49° ESE 23:07:25 10° NE
Cosmos 2333 Rocket 3.1 22:57:33 10° SW 23:03:05 49° NW 23:08:37 10° NNE
BREEZE-M DEB (TANK) 3.5 22:59:08 10° WSW 23:03:22 78° SSE 23:13:49 10° ENE
Meteor 1-27 Rocket 4.1 22:58:04 10° NNW 23:03:52 61° W 23:07:03 27° SSW
Cosmos 2242 Rocket 4.1 23:00:38 10° NNW 23:05:06 55° W 23:06:59 31° SSW
Okean 1-7 3.1 23:00:58 10° N 23:05:17 68° ENE 23:06:48 39° SSE
Cosmos 1570 Rocket 4.4 23:01:31 10° NNW 23:06:35 51° WSW 23:08:50 30° SSW
Cosmos 1633 Rocket 4.4 23:05:17 15° SW 23:08:18 33° WNW 23:12:16 10° N
Cosmos 1933 Rocket 3.7 23:07:57 33° SSW 23:09:52 72° W 23:14:16 10° N
YAOGAN 11 4.2 23:10:56 37° SSW 23:12:25 62° WSW 23:16:45 10° NNW
ALOS 2 2.6 23:15:06 40° S 23:16:39 78° WSW 23:21:04 10° NNW
Cosmos 1814 Rocket 4.0 23:13:55 10° NNW 23:19:02 66° WSW 23:21:04 36° S
Cosmos 2221 Rocket 4.1 23:14:50 10° N 23:19:15 50° ENE 23:20:59 32° SE
Cosmos 2369 Rocket 3.4 23:16:12 10° NNW 23:21:32 38° NE 23:26:33 11° ESE
ERS-2 2.3 23:21:51 44° SE 23:22:47 62° ENE 23:26:26 10° N
Okean 1 3.9 23:19:39 10° N 23:23:35 47° ENE 23:24:50 35° SE
Gbstr 26 Del rocket 2.5 23:21:34 10° WNW 23:25:19 86° SSW 23:27:20 27° ESE
GP-B 3.7 23:22:31 10° N 23:26:49 48° W 23:28:43 29° SW
Cosmos 1867 4.1 23:22:31 10° SW 23:27:55 60° NW 23:33:23 10° NE
Cosmos 1869 Rocket 3.5 23:33:12 43° S 23:34:34 78° E 23:38:57 10° NNE
Cosmos 540 Rocket 3.5 23:30:17 10° NNW 23:35:22 64° WSW 23:37:17 37° S
BREEZE-M DEB (TANK) 3.3 23:26:22 10° W 23:36:23 79° S 23:38:58 13° E
Lacrosse 5 rocket 2.0 23:34:01 10° WNW 23:38:18 39° SW 23:38:45 38° SSW
Cosmos 1812 4.2 23:35:23 10° NNW 23:38:41 27° W 23:39:44 24° WSW
CZ-4 R/B 3.8 23:36:17 10° NNE 23:40:59 69° ESE 23:42:40 39° S
SeaSat 1 2.4 23:44:25 10° NNE 23:49:24 88° ESE 23:51:42 33° SSW
SL-16 R/B 2.1 23:47:57 32° SSW 23:50:39 80° ESE 23:56:22 10° NNE
Meteor 2-19 Rocket 4.5 23:44:50 10° NNW 23:50:59 75° W 23:53:59 32° S
Cosmos 2285 Rocket 4.0 23:49:18 26° SSW 23:53:04 79° WNW 23:59:24 10° NNE
SL-4 R/B 2.5 23:50:11 10° W 23:55:01 76° N 23:59:37 10° E
